QPF
0.00 0.00 0.00 0.00 0.00 0.00 0.00 0.00 0.00 0.00 0.00 0.00 0.00 0.00 0.00 0.01 0.01 0.01 0.01 0.01 0.01 0.01 0.01 0.01 0.01 0.01 0.01 0.00 0.00 0.00 0.01 0.02 0.04 0.05 0.06 0.06 0.06 0.05 0.04 0.02 0.01 0.01 0.02 0.02
0.00 0.00 0.00 0.00 0.00 0.00 0.00 0.00 0.00 0.00 0.00 0.00 0.00 0.00 0.01 0.01 0.01 0.01 0.01 0.01 0.01 0.00 0.00 0.01 0.01 0.00 0.00 0.00 0.01 0.01 0.01 0.02 0.03 0.04 0.05 0.05 0.06 0.06 0.04 0.02 0.02 0.02 0.02 0.02
0.00 0.00 0.00 0.00 0.00 0.00 0.00 0.00 0.00 0.00 0.00 0.00 0.00 0.01 0.01 0.01 0.01 0.01 0.01 0.01 0.00 0.01 0.00 0.00 0.00 0.00 0.00 0.01 0.01 0.02 0.02 0.03 0.03 0.02 0.03 0.03 0.04 0.04 0.05 0.04 0.03 0.02 0.02 0.01
0.00 0.00 0.00 0.00 0.00 0.00 0.00 0.00 0.00 0.00 0.00 0.00 0.01 0.01 0.01 0.01 0.01 0.00 0.00 0.00 0.00 0.00 0.00 0.00 0.00 0.00 0.00 0.01 0.02 0.03 0.03 0.04 0.03 0.02 0.03 0.03 0.04 0.05 0.05 0.04 0.04 0.03 0.02 0.02
0.00 0.00 0.00 0.00 0.00 0.00 0.00 0.00 0.00 0.00 0.00 0.00 0.00 0.00 0.00 0.00 0.00 0.00 0.00 0.00 0.00 0.00 0.00 0.01 0.00 0.00 0.01 0.01 0.01 0.01 0.02 0.03 0.02 0.02 0.03 0.04 0.05 0.07 0.07 0.06 0.06 0.04 0.03 0.02
0.00 0.00 0.00 0.00 0.00 0.00 0.00 0.01 0.00 0.00 0.00 0.00 0.00 0.00 0.00 0.00 0.00 0.00 0.00 0.00 0.00 0.00 0.00 0.00 0.00 0.00 0.01 0.02 0.02 0.01 0.01 0.02 0.02 0.02 0.03 0.08 0.08 0.07 0.06 0.06 0.05 0.03 0.02 0.02
0.00 0.00 0.00 0.00 0.00 0.00 0.01 0.01 0.00 0.00 0.00 0.00 0.00 0.00 0.00 0.00 0.00 0.00 0.00 0.00 0.00 0.00 0.01 0.01 0.01 0.02 0.02 0.01 0.01 0.01 0.01 0.01 0.01 0.01 0.03 0.06 0.05 0.04 0.05 0.05 0.04 0.03 0.03 0.03
0.00 0.00 0.01 0.00 0.01 0.01 0.01 0.00 0.00 0.00 0.00 0.00 0.00 0.00 0.00 0.00 0.00 0.01 0.01 0.01 0.01 0.01 0.01 0.01 0.01 0.01 0.01 0.01 0.01 0.01 0.01 0.01 0.01 0.01 0.02 0.03 0.03 0.04 0.05 0.05 0.05 0.05 0.05 0.05
0.01 0.01 0.01 0.00 0.01 0.00 0.00 0.00 0.00 0.00 0.00 0.00 0.01 0.00 0.01 0.01 0.01 0.01 0.01 0.01 0.01 0.01 0.01 0.01 0.01 0.01 0.01 0.01 0.01 0.02 0.02 0.01 0.01 0.01 0.01 0.01 0.02 0.05 0.05 0.04 0.04 0.05 0.04 0.04
0.01 0.01 0.00 0.01 0.01 0.00 0.00 0.00 0.01 0.00 0.00 0.00 0.00 0.00 0.01 0.02 0.03 0.03 0.03 0.03 0.02 0.01 0.01 0.02 0.02 0.03 0.03 0.02 0.02 0.02 0.01 0.01 0.01 0.01 0.01 0.01 0.01 0.03 0.04 0.03 0.03 0.03 0.03 0.03
0.02 0.02 0.01 0.01 0.01 0.01 0.00 0.00 0.01 0.01 0.02 0.02 0.01 0.01 0.01 0.01 0.02 0.02 0.03 0.03 0.02 0.01 0.01 0.01 0.01 0.02 0.01 0.01 0.01 0.02 0.02 0.02 0.01 0.01 0.01 0.01 0.02 0.02 0.03 0.02 0.03 0.03 0.02 0.03
0.02 0.02 0.01 0.02 0.01 0.01 0.01 0.02 0.02 0.03 0.04 0.03 0.02 0.01 0.01 0.01 0.03 0.03 0.03 0.02 0.01 0.01 0.01 0.01 0.01 0.01 0.01 0.01 0.01 0.01 0.01 0.02 0.01 0.01 0.00 0.01 0.01 0.02 0.03 0.03 0.03 0.04 0.04 0.03
0.02 0.01 0.02 0.02 0.02 0.03 0.03 0.04 0.04 0.03 0.03 0.03 0.02 0.01 0.01 0.01 0.03 0.05 0.03 0.02 0.02 0.02 0.02 0.03 0.02 0.02 0.02 0.02 0.02 0.02 0.01 0.02 0.02 0.01 0.01 0.01 0.01 0.02 0.03 0.04 0.05 0.06 0.06 0.05
0.02 0.03 0.03 0.03 0.03 0.03 0.03 0.03 0.04 0.04 0.06 0.06 0.03 0.01 0.01 0.01 0.02 0.02 0.02 0.01 0.01 0.02 0.03 0.03 0.03 0.03 0.03 0.04 0.04 0.03 0.03 0.03 0.02 0.02 0.01 0.02 0.02 0.03 0.03 0.03 0.04 0.05 0.06 0.06
0.03 0.04 0.03 0.03 0.03 0.02 0.03 0.03 0.03 0.04 0.05 0.04 0.01 0.01 0.01 0.01 0.01 0.01 0.01 0.01 0.02 0.02 0.03 0.04 0.06 0.07 0.08 0.10 0.08 0.04 0.04 0.04 0.04 0.03 0.03 0.04 0.05 0.05 0.03 0.03 0.03 0.04 0.05 0.06
0.02 0.04 0.03 0.03 0.02 0.02 0.02 0.02 0.02 0.03 0.02 0.03 0.02 0.01 0.01 0.01 0.01 0.01 0.01 0.02 0.04 0.05 0.05 0.05 0.06 0.07 0.07 0.07 0.05 0.04 0.04 0.06 0.09 0.10 0.09 0.08 0.07 0.05 0.04 0.04 0.04 0.04 0.05 0.06
0.03 0.05 0.04 0.03 0.02 0.02 0.02 0.01 0.03 0.04 0.03 0.02 0.03 0.03 0.03 0.03 0.03 0.02 0.02 0.03 0.05 0.07 0.05 0.04 0.06 0.06 0.03 0.03 0.04 0.04 0.03 0.05 0.08 0.07 0.06 0.07 0.06 0.05 0.04 0.04 0.04 0.04 0.06 0.07
0.03 0.03 0.04 0.05 0.03 0.02 0.02 0.02 0.03 0.03 0.03 0.03 0.03 0.03 0.02 0.03 0.03 0.04 0.05 0.06 0.06 0.07 0.04 0.03 0.05 0.05 0.03 0.03 0.03 0.04 0.04 0.03 0.03 0.03 0.03 0.03 0.03 0.03 0.04 0.04 0.04 0.05 0.06 0.06
0.02 0.03 0.03 0.03 0.02 0.02 0.02 0.01 0.01 0.02 0.03 0.04 0.05 0.05 0.05 0.04 0.04 0.05 0.06 0.06 0.07 0.07 0.04 0.02 0.02 0.02 0.02 0.02 0.03 0.03 0.03 0.02 0.02 0.03 0.03 0.04 0.04 0.04 0.04 0.05 0.06 0.06 0.06 0.04
0.02 0.01 0.02 0.03 0.03 0.03 0.02 0.01 0.01 0.02 0.02 0.04 0.04 0.05 0.06 0.05 0.04 0.04 0.05 0.04 0.04 0.04 0.03 0.02 0.01 0.02 0.03 0.02 0.02 0.02 0.02 0.02 0.02 0.02 0.03 0.04 0.04 0.03 0.05 0.06 0.06 0.06 0.05 0.04
0.02 0.01 0.01 0.01 0.01 0.01 0.01 0.01 0.01 0.02 0.02 0.04 0.05 0.05 0.10 0.10 0.06 0.04 0.04 0.03 0.03 0.03 0.03 0.03 0.02 0.03 0.03 0.03 0.02 0.02 0.02 0.02 0.03 0.03 0.03 0.03 0.03 0.04 0.04 0.04 0.05 0.05 0.04 0.03
0.01 0.01 0.01 0.00 0.00 0.00 0.00 0.01 0.01 0.01 0.01 0.03 0.05 0.06 0.08 0.11 0.07 0.06 0.06 0.04 0.04 0.04 0.03 0.03 0.03 0.03 0.04 0.03 0.02 0.02 0.02 0.03 0.03 0.03 0.03 0.03 0.04 0.04 0.04 0.05 0.05 0.04 0.03 0.03
0.00 0.00 0.01 0.01 0.01 0.01 0.01 0.01 0.01 0.02 0.02 0.02 0.02 0.03 0.04 0.06 0.07 0.07 0.07 0.07 0.04 0.04 0.03 0.03 0.03 0.03 0.03 0.02 0.02 0.03 0.03 0.03 0.03 0.04 0.04 0.04 0.04 0.04 0.04 0.04 0.05 0.04 0.03 0.03
0.01 0.01 0.01 0.01 0.01 0.01 0.02 0.03 0.02 0.03 0.03 0.02 0.02 0.03 0.03 0.03 0.04 0.05 0.07 0.09 0.08 0.06 0.04 0.04 0.03 0.03 0.03 0.03 0.03 0.03 0.03 0.03 0.03 0.04 0.04 0.04 0.04 0.04 0.04 0.05 0.06 0.05 0.04 0.04
0.02 0.02 0.02 0.02 0.02 0.02 0.04 0.05 0.03 0.03 0.03 0.02 0.02 0.02 0.03 0.04 0.03 0.04 0.04 0.05 0.07 0.09 0.07 0.05 0.05 0.04 0.03 0.03 0.03 0.04 0.04 0.05 0.05 0.05 0.05 0.05 0.05 0.05 0.05 0.05 0.05 0.05 0.04 0.04
0.02 0.02 0.02 0.02 0.02 0.03 0.04 0.04 0.03 0.03 0.03 0.02 0.01 0.02 0.03 0.04 0.03 0.03 0.02 0.03 0.04 0.07 0.08 0.06 0.05 0.05 0.04 0.04 0.04 0.05 0.05 0.06 0.06 0.06 0.06 0.06 0.06 0.06 0.06 0.07 0.07 0.05 0.05 0.04
0.02 0.01 0.01 0.01 0.02 0.02 0.02 0.02 0.02 0.03 0.02 0.02 0.02 0.02 0.05 0.05 0.03 0.02 0.02 0.03 0.03 0.04 0.05 0.05 0.05 0.06 0.05 0.05 0.05 0.05 0.04 0.04 0.04 0.05 0.06 0.06 0.05 0.05 0.05 0.06 0.06 0.07 0.07 0.06
MSLP
1012.94 1013.09 1013.22 1013.36 1013.54 1013.80 1014.14 1014.57 1015.07 1015.63 1016.22 1016.81 1017.35 1017.84 1018.24 1018.54 1018.73 1018.81 1018.78 1018.64 1018.39 1018.07 1017.67 1017.23 1016.75 1016.27 1015.79 1015.33 1014.88 1014.45 1014.02 1013.60 1013.17 1012.74 1012.29 1011.85 1011.42 1011.02 1010.66 1010.34 1010.07 1009.84 1009.63 1009.43
1013.39 1013.61 1013.77 1013.90 1014.04 1014.21 1014.45 1014.78 1015.21 1015.73 1016.31 1016.92 1017.54 1018.11 1018.60 1018.99 1019.25 1019.36 1019.33 1019.16 1018.86 1018.46 1018.00 1017.49 1016.96 1016.44 1015.93 1015.45 1014.98 1014.54 1014.09 1013.64 1013.17 1012.69 1012.20 1011.71 1011.24 1010.80 1010.40 1010.05 1009.75 1009.49 1009.26 1009.03
1013.73 1014.01 1014.21 1014.35 1014.45 1014.57 1014.74 1014.98 1015.34 1015.79 1016.34 1016.95 1017.58 1018.19 1018.72 1019.15 1019.43 1019.54 1019.50 1019.29 1018.94 1018.49 1017.97 1017.42 1016.86 1016.32 1015.81 1015.34 1014.89 1014.45 1014.00 1013.55 1013.07 1012.56 1012.04 1011.52 1011.01 1010.53 1010.09 1009.70 1009.36 1009.05 1008.78 1008.52
1013.93 1014.27 1014.51 1014.67 1014.77 1014.86 1014.98 1015.16 1015.45 1015.84 1016.34 1016.92 1017.53 1018.13 1018.66 1019.08 1019.35 1019.45 1019.37 1019.12 1018.73 1018.24 1017.69 1017.12 1016.56 1016.03 1015.54 1015.09 1014.66 1014.25 1013.82 1013.37 1012.88 1012.36 1011.81 1011.25 1010.70 1010.17 1009.67 1009.23 1008.84 1008.48 1008.16 1007.85
1014.01 1014.40 1014.69 1014.88 1015.00 1015.09 1015.19 1015.34 1015.58 1015.93 1016.37 1016.90 1017.47 1018.03 1018.53 1018.91 1019.15 1019.21 1019.10 1018.82 1018.40 1017.89 1017.32 1016.75 1016.20 1015.69 1015.23 1014.81 1014.42 1014.02 1013.61 1013.16 1012.66 1012.11 1011.52 1010.91 1010.30 1009.71 1009.15 1008.64 1008.18 1007.77 1007.38 1007.01
1014.01 1014.44 1014.77 1015.00 1015.16 1015.28 1015.39 1015.54 1015.76 1016.07 1016.48 1016.95 1017.47 1017.97 1018.42 1018.75 1018.94 1018.96 1018.81 1018.50 1018.07 1017.55 1016.99 1016.43 1015.91 1015.42 1014.99 1014.60 1014.22 1013.84 1013.42 1012.95 1012.42 1011.82 1011.18 1010.50 1009.82 1009.15 1008.52 1007.93 1007.40 1006.91 1006.47 1006.05
1013.96 1014.40 1014.78 1015.07 1015.29 1015.46 1015.61 1015.79 1016.02 1016.31 1016.68 1017.11 1017.57 1018.01 1018.39 1018.66 1018.79 1018.77 1018.58 1018.26 1017.82 1017.31 1016.77 1016.23 1015.73 1015.27 1014.86 1014.48 1014.10 1013.70 1013.26 1012.74 1012.16 1011.49 1010.77 1010.01 1009.25 1008.49 1007.78 1007.12 1006.52 1005.97 1005.48 1005.02
1013.87 1014.35 1014.77 1015.13 1015.42 1015.66 1015.88 1016.10 1016.35 1016.65 1016.99 1017.38 1017.77 1018.14 1018.45 1018.65 1018.72 1018.65 1018.44 1018.10 1017.66 1017.16 1016.64 1016.13 1015.65 1015.21 1014.81 1014.42 1014.02 1013.59 1013.09 1012.51 1011.85 1011.10 1010.30 1009.45 1008.59 1007.76 1006.97 1006.25 1005.59 1005.01 1004.48 1004.01
1013.80 1014.30 1014.77 1015.20 1015.57 1015.89 1016.18 1016.46 1016.74 1017.04 1017.37 1017.71 1018.04 1018.34 1018.56 1018.69 1018.69 1018.57 1018.32 1017.96 1017.52 1017.04 1016.54 1016.05 1015.59 1015.16 1014.75 1014.35 1013.91 1013.43 1012.86 1012.21 1011.46 1010.63 1009.73 1008.80 1007.87 1006.98 1006.14 1005.37 1004.69 1004.09 1003.57 1003.11
1013.77 1014.30 1014.82 1015.31 1015.76 1016.15 1016.51 1016.84 1017.15 1017.46 1017.76 1018.05 1018.32 1018.53 1018.67 1018.71 1018.64 1018.46 1018.17 1017.78 1017.34 1016.86 1016.38 1015.90 1015.45 1015.02 1014.60 1014.17 1013.70 1013.15 1012.52 1011.79 1010.96 1010.06 1009.09 1008.10 1007.12 1006.18 1005.32 1004.55 1003.87 1003.30 1002.80 1002.38
1013.80 1014.36 1014.93 1015.47 1015.98 1016.44 1016.85 1017.21 1017.54 1017.84 1018.11 1018.35 1018.53 1018.65 1018.69 1018.64 1018.49 1018.25 1017.91 1017.50 1017.04 1016.56 1016.08 1015.61 1015.17 1014.73 1014.30 1013.83 1013.31 1012.72 1012.03 1011.24 1010.36 1009.39 1008.38 1007.36 1006.36 1005.43 1004.58 1003.83 1003.20 1002.67 1002.24 1001.88
1013.91 1014.49 1015.09 1015.67 1016.22 1016.71 1017.15 1017.54 1017.86 1018.14 1018.36 1018.53 1018.63 1018.66 1018.61 1018.46 1018.23 1017.91 1017.52 1017.08 1016.60 1016.11 1015.63 1015.16 1014.71 1014.27 1013.82 1013.33 1012.78 1012.14 1011.42 1010.59 1009.67 1008.69 1007.67 1006.65 1005.67 1004.76 1003.96 1003.27 1002.70 1002.25 1001.89 1001.61
1014.10 1014.70 1015.30 1015.90 1016.45 1016.96 1017.40 1017.78 1018.08 1018.32 1018.49 1018.58 1018.60 1018.54 1018.40 1018.17 1017.86 1017.48 1017.03 1016.55 1016.05 1015.55 1015.06 1014.59 1014.13 1013.68 1013.22 1012.71 1012.14 1011.49 1010.75 1009.91 1008.99 1008.02 1007.02 1006.03 1005.10 1004.25 1003.51 1002.90 1002.40 1002.03 1001.75 1001.55
1014.36 1014.94 1015.54 1016.12 1016.67 1017.15 1017.57 1017.92 1018.18 1018.37 1018.48 1018.51 1018.46 1018.32 1018.10 1017.80 1017.43 1016.99 1016.51 1016.00 1015.47 1014.96 1014.46 1013.98 1013.52 1013.06 1012.59 1012.08 1011.50 1010.85 1010.12 1009.29 1008.40 1007.46 1006.50 1005.57 1004.70 1003.92 1003.26 1002.72 1002.31 1002.00 1001.80 1001.66
1014.66 1015.22 1015.79 1016.33 1016.83 1017.28 1017.65 1017.95 1018.17 1018.31 1018.37 1018.35 1018.24 1018.04 1017.77 1017.42 1017.00 1016.53 1016.02 1015.49 1014.95 1014.42 1013.92 1013.43 1012.97 1012.50 1012.03 1011.52 1010.95 1010.31 1009.60 1008.81 1007.96 1007.07 1006.17 1005.31 1004.51 1003.80 1003.21 1002.74 1002.40 1002.15 1001.99 1001.90
1014.98 1015.50 1016.01 1016.50 1016.95 1017.34 1017.66 1017.90 1018.07 1018.16 1018.18 1018.11 1017.96 1017.74 1017.44 1017.07 1016.63 1016.14 1015.62 1015.08 1014.54 1014.01 1013.49 1013.01 1012.54 1012.07 1011.60 1011.09 1010.54 1009.93 1009.24 1008.50 1007.70 1006.87 1006.04 1005.25 1004.52 1003.89 1003.36 1002.95 1002.65 1002.44 1002.31 1002.24
1015.28 1015.75 1016.21 1016.63 1017.01 1017.33 1017.58 1017.77 1017.89 1017.94 1017.93 1017.84 1017.68 1017.44 1017.14 1016.77 1016.34 1015.85 1015.34 1014.80 1014.26 1013.73 1013.22 1012.72 1012.25 1011.79 1011.32 1010.82 1010.29 1009.70 1009.06 1008.36 1007.62 1006.85 1006.09 1005.37 1004.70 1004.13 1003.65 1003.28 1003.02 1002.84 1002.72 1002.65
1015.57 1015.98 1016.37 1016.72 1017.02 1017.27 1017.46 1017.59 1017.67 1017.69 1017.65 1017.55 1017.39 1017.17 1016.87 1016.52 1016.11 1015.64 1015.14 1014.62 1014.09 1013.57 1013.06 1012.56 1012.09 1011.62 1011.16 1010.67 1010.16 1009.60 1008.99 1008.34 1007.66 1006.95 1006.26 1005.59 1004.99 1004.47 1004.03 1003.70 1003.46 1003.29 1003.19 1003.12
1015.82 1016.17 1016.49 1016.77 1016.99 1017.17 1017.29 1017.37 1017.41 1017.40 1017.35 1017.25 1017.10 1016.90 1016.63 1016.30 1015.91 1015.48 1015.00 1014.50 1013.98 1013.46 1012.95 1012.46 1011.99 1011.52 1011.06 1010.58 1010.08 1009.55 1008.98 1008.37 1007.74 1007.09 1006.45 1005.85 1005.30 1004.82 1004.43 1004.12 1003.90 1003.76 1003.67 1003.61
1016.03 1016.32 1016.57 1016.77 1016.92 1017.02 1017.09 1017.13 1017.13 1017.10 1017.04 1016.94 1016.80 1016.62 1016.37 1016.07 1015.72 1015.31 1014.85 1014.37 1013.86 1013.35 1012.85 1012.36 1011.88 1011.41 1010.95 1010.48 1009.99 1009.48 1008.94 1008.37 1007.78 1007.19 1006.60 1006.05 1005.55 1005.11 1004.76 1004.49 1004.30 1004.18 1004.11 1004.08
1016.20 1016.42 1016.60 1016.73 1016.81 1016.85 1016.86 1016.85 1016.82 1016.77 1016.70 1016.61 1016.48 1016.31 1016.09 1015.81 1015.48 1015.10 1014.66 1014.19 1013.70 1013.20 1012.70 1012.20 1011.72 1011.25 1010.79 1010.33 1009.85 1009.36 1008.84 1008.30 1007.75 1007.19 1006.65 1006.14 1005.69 1005.30 1004.98 1004.75 1004.60 1004.51 1004.48 1004.48
1016.32 1016.47 1016.57 1016.63 1016.64 1016.63 1016.59 1016.54 1016.48 1016.42 1016.34 1016.25 1016.14 1015.98 1015.78 1015.52 1015.21 1014.84 1014.42 1013.97 1013.49 1012.99 1012.49 1012.00 1011.52 1011.05 1010.58 1010.12 1009.65 1009.16 1008.66 1008.15 1007.62 1007.10 1006.59 1006.12 1005.70 1005.35 1005.08 1004.88 1004.77 1004.72 1004.74 1004.79
1016.37 1016.45 1016.49 1016.48 1016.43 1016.37 1016.29 1016.21 1016.13 1016.06 1015.98 1015.90 1015.79 1015.64 1015.45 1015.21 1014.92 1014.56 1014.16 1013.72 1013.24 1012.76 1012.26 1011.77 1011.29 1010.82 1010.35 1009.89 1009.42 1008.94 1008.45 1007.95 1007.44 1006.94 1006.46 1006.01 1005.62 1005.30 1005.06 1004.90 1004.83 1004.82 1004.88 1004.98
1016.36 1016.37 1016.34 1016.27 1016.18 1016.07 1015.97 1015.87 1015.79 1015.71 1015.64 1015.56 1015.47 1015.34 1015.16 1014.94 1014.65 1014.31 1013.93 1013.49 1013.03 1012.55 1012.06 1011.58 1011.10 1010.62 1010.16 1009.70 1009.22 1008.75 1008.26 1007.76 1007.26 1006.77 1006.31 1005.88 1005.51 1005.22 1005.00 1004.86 1004.81 1004.84 1004.92 1005.06
1016.29 1016.24 1016.15 1016.04 1015.91 1015.78 1015.66 1015.57 1015.49 1015.42 1015.36 1015.30 1015.22 1015.11 1014.95 1014.74 1014.47 1014.15 1013.77 1013.35 1012.90 1012.43 1011.95 1011.47 1010.99 1010.52 1010.06 1009.59 1009.12 1008.64 1008.16 1007.66 1007.17 1006.69 1006.23 1005.82 1005.46 1005.17 1004.96 1004.84 1004.80 1004.83 1004.93 1005.08
1016.20 1016.10 1015.97 1015.82 1015.67 1015.54 1015.43 1015.34 1015.28 1015.24 1015.20 1015.17 1015.11 1015.02 1014.87 1014.68 1014.42 1014.11 1013.74 1013.33 1012.89 1012.43 1011.96 1011.48 1011.01 1010.55 1010.09 1009.62 1009.16 1008.68 1008.20 1007.71 1007.22 1006.75 1006.30 1005.89 1005.54 1005.26 1005.05 1004.92 1004.87 1004.90 1004.98 1005.12
1016.13 1016.00 1015.84 1015.69 1015.54 1015.42 1015.32 1015.26 1015.22 1015.21 1015.21 1015.20 1015.16 1015.09 1014.96 1014.78 1014.53 1014.23 1013.87 1013.47 1013.03 1012.57 1012.11 1011.64 1011.18 1010.72 1010.26 1009.81 1009.35 1008.89 1008.42 1007.94 1007.47 1007.01 1006.58 1006.18 1005.83 1005.55 1005.34 1005.20 1005.12 1005.12 1005.17 1005.26
Thickness
5787 5796 5797 5792 5792 5794 5794 5798 5795 5799 5801 5806 5810 5812 5811 5812 5811 5809 5807 5806 5806 5806 5805 5803 5801 5799 5798 5797 5796 5793 5789 5785 5782 5779 5777 5773 5769 5766 5764 5761 5759 5757 5754 5752
5771 5783 5785 5782 5787 5791 5791 5794 5795 5797 5796 5806 5809 5808 5804 5804 5803 5801 5801 5801 5801 5800 5799 5797 5796 5795 5794 5793 5792 5789 5785 5782 5780 5776 5773 5770 5767 5764 5760 5757 5755 5754 5752 5749
5761 5772 5770 5765 5779 5784 5785 5791 5792 5788 5794 5798 5796 5795 5795 5796 5797 5796 5796 5796 5796 5795 5795 5794 5793 5792 5790 5789 5788 5784 5780 5778 5776 5773 5770 5767 5765 5761 5757 5755 5753 5751 5748 5745
5759 5754 5739 5769 5786 5787 5783 5784 5790 5789 5790 5792 5790 5791 5792 5792 5791 5790 5790 5790 5791 5791 5792 5792 5791 5790 5787 5786 5782 5778 5775 5773 5771 5769 5766 5764 5760 5757 5755 5752 5749 5747 5744 5742
5751 5746 5751 5760 5772 5777 5773 5770 5782 5781 5782 5784 5787 5785 5783 5786 5786 5786 5785 5785 5786 5787 5788 5787 5786 5784 5781 5779 5776 5773 5770 5768 5766 5764 5761 5759 5756 5754 5751 5748 5745 5744 5741 5738
5742 5738 5738 5757 5770 5776 5770 5756 5772 5774 5772 5775 5777 5771 5772 5778 5779 5779 5779 5779 5780 5781 5781 5779 5779 5778 5773 5770 5769 5766 5765 5764 5761 5758 5755 5753 5751 5749 5747 5745 5741 5739 5737 5735
5734 5734 5747 5752 5762 5763 5745 5751 5763 5766 5766 5767 5767 5768 5768 5771 5770 5771 5771 5772 5773 5772 5771 5771 5771 5769 5764 5762 5760 5760 5759 5757 5754 5752 5748 5746 5745 5743 5741 5739 5736 5733 5731 5729
5730 5727 5731 5743 5751 5746 5744 5753 5757 5757 5758 5758 5758 5759 5759 5760 5760 5761 5762 5763 5763 5761 5761 5762 5762 5759 5756 5754 5754 5753 5750 5747 5745 5744 5743 5741 5738 5736 5734 5732 5729 5726 5723 5722
5724 5724 5726 5735 5737 5738 5743 5743 5746 5748 5749 5748 5747 5747 5748 5749 5750 5751 5752 5752 5753 5751 5751 5751 5751 5750 5747 5746 5746 5743 5739 5737 5735 5734 5733 5732 5731 5729 5727 5725 5724 5721 5720 5717
5711 5714 5720 5724 5727 5730 5734 5734 5737 5739 5739 5739 5737 5737 5737 5738 5739 5740 5742 5742 5742 5741 5740 5740 5741 5740 5739 5738 5736 5733 5730 5728 5726 5724 5724 5723 5722 5722 5721 5720 5718 5717 5715 5712
5700 5704 5709 5712 5715 5720 5723 5725 5726 5726 5727 5727 5726 5726 5727 5727 5728 5729 5730 5732 5732 5730 5729 5729 5730 5729 5729 5728 5727 5724 5722 5720 5718 5717 5716 5714 5713 5712 5712 5713 5712 5709 5708 5707
5696 5699 5702 5701 5706 5711 5711 5712 5713 5714 5714 5716 5717 5716 5717 5717 5717 5718 5719 5720 5720 5720 5720 5720 5719 5719 5719 5719 5717 5714 5713 5712 5712 5710 5708 5707 5705 5704 5702 5701 5700 5698 5697 5696
5691 5695 5696 5695 5698 5700 5700 5701 5702 5703 5703 5703 5706 5707 5707 5707 5708 5708 5709 5708 5708 5708 5708 5709 5708 5708 5709 5709 5708 5706 5705 5704 5703 5702 5701 5699 5699 5697 5695 5692 5688 5687 5686 5683
5682 5683 5681 5683 5685 5688 5689 5690 5692 5693 5694 5694 5695 5697 5697 5697 5698 5698 5698 5698 5699 5698 5698 5698 5699 5698 5699 5699 5698 5697 5696 5695 5694 5693 5693 5692 5692 5690 5688 5687 5685 5682 5677 5673
5672 5675 5674 5674 5676 5677 5679 5680 5680 5681 5682 5683 5685 5686 5687 5687 5687 5688 5688 5689 5690 5689 5689 5689 5689 5689 5690 5689 5688 5687 5687 5686 5685 5685 5685 5684 5683 5682 5681 5679 5677 5675 5672 5666
5662 5664 5665 5664 5665 5666 5668 5669 5669 5670 5672 5672 5674 5675 5676 5678 5678 5679 5679 5679 5679 5679 5679 5679 5678 5679 5679 5679 5677 5677 5677 5675 5674 5675 5674 5674 5673 5672 5671 5670 5668 5666 5664 5662
5652 5651 5652 5653 5654 5656 5658 5659 5660 5660 5662 5663 5664 5665 5666 5667 5668 5668 5668 5669 5669 5668 5668 5668 5669 5669 5669 5668 5667 5668 5668 5666 5662 5663 5664 5664 5664 5663 5662 5661 5660 5659 5657 5654
5647 5647 5647 5647 5647 5647 5648 5650 5650 5651 5651 5653 5654 5655 5655 5656 5656 5656 5657 5658 5658 5658 5658 5659 5659 5659 5659 5659 5657 5658 5658 5658 5656 5655 5654 5654 5654 5654 5653 5652 5651 5649 5647 5644
5639 5638 5639 5639 5640 5640 5640 5641 5641 5642 5642 5642 5643 5643 5644 5645 5645 5645 5646 5646 5646 5646 5647 5648 5646 5648 5648 5648 5646 5647 5648 5648 5647 5646 5644 5642 5643 5644 5643 5643 5642 5641 5639 5637
5630 5631 5631 5631 5631 5631 5631 5632 5632 5632 5632 5633 5634 5634 5634 5634 5635 5635 5635 5635 5636 5636 5636 5636 5637 5637 5638 5638 5636 5638 5639 5638 5637 5637 5636 5635 5635 5636 5635 5634 5633 5631 5630 5629
5622 5623 5624 5624 5623 5624 5624 5625 5624 5624 5624 5625 5625 5625 5625 5624 5624 5625 5625 5626 5626 5625 5625 5625 5627 5628 5628 5627 5626 5629 5630 5629 5628 5629 5629 5629 5628 5628 5627 5626 5624 5623 5622 5620
5616 5617 5617 5617 5617 5617 5617 5618 5618 5617 5618 5617 5617 5618 5617 5616 5616 5616 5616 5616 5616 5614 5617 5619 5619 5618 5617 5616 5619 5621 5621 5621 5621 5621 5622 5621 5621 5620 5619 5618 5617 5615 5614 5612
5610 5610 5611 5611 5610 5611 5611 5611 5612 5612 5611 5611 5610 5610 5610 5609 5609 5609 5608 5609 5609 5607 5609 5611 5609 5607 5606 5609 5611 5613 5613 5613 5614 5614 5614 5614 5614 5614 5612 5610 5608 5607 5605 5603
5605 5605 5605 5606 5606 5605 5604 5605 5605 5605 5605 5605 5605 5605 5604 5604 5604 5604 5603 5601 5599 5598 5602 5600 5599 5599 5599 5604 5605 5606 5606 5606 5607 5607 5607 5607 5606 5604 5602 5600 5599 5597 5595 5594
5600 5600 5601 5600 5600 5601 5600 5600 5600 5600 5601 5601 5600 5600 5600 5599 5597 5597 5596 5595 5593 5593 5596 5595 5593 5593 5596 5599 5598 5598 5598 5598 5598 5597 5596 5596 5595 5594 5592 5590 5588 5587 5586 5585
5596 5597 5596 5595 5596 5596 5598 5597 5597 5596 5596 5596 5596 5595 5595 5594 5592 5592 5590 5590 5588 5587 5588 5589 5589 5588 5590 5591 5590 5590 5589 5588 5588 5587 5586 5586 5585 5584 5583 5581 5579 5578 5577 5575
5592 5593 5592 5593 5594 5593 5593 5593 5592 5592 5592 5591 5589 5589 5589 5588 5587 5585 5584 5584 5584 5583 5583 5583 5583 5582 5582 5582 5582 5581 5581 5580 5579 5578 5577 5576 5575 5574 5572 5570 5568 5567 5565 5564